Regional Weather Roundup
Issued by NWS

Home | Current Version | Previous Version | Text Only | Print | Product List | Glossary On
Versions: 1 2 3 4 5 6 7 8 9 10 11 12 13 14 15 16 17 18 19 20 21 22 23 24 25 26 27 28 29 30 31 32 33 34 35 36 37 38 39 40 41 42 43 44 45 46 47 48 49 50
354
ASUS43 KMKX 211700
RWRWI

WISCONSIN REGIONAL WEATHER ROUNDUP
NATIONAL WEATHER SERVICE MILWAUKEE/SULLIVAN WI
1100 AM CST SAT JAN 21 2017

NOTE: "FAIR" INDICATES FEW OR NO CLOUDS BELOW 12,000 FEET WITH NO
SIGNIFICANT WEATHER AND/OR OBSTRUCTIONS TO VISIBILITY.

WIZ001-002-006>008-014>016-023>028-211800-
NORTHWEST WISCONSIN

CITY           SKY/WX    TMP DP  RH WIND       PRES   REMARKS
SUPERIOR ARPT  DRIZZLE   34  34 100 NE6       29.51S WCI  29
ASHLAND        CLOUDY    36  34  92 NE7       29.51F WCI  30
HAYWARD        CLOUDY    36  34  92 E6        29.46F WCI  31
SIREN          LGT RAIN  35  35  99 NE3       29.45F
CUMBERLAND     CLOUDY    34  34 100 E3        29.44S FOG
RICE LAKE      RAIN      36  36 100 E5        29.46S WCI  32
CHETEK         LGT RAIN  35  35  99 E5        29.45S WCI  31
LADYSMITH      LGT RAIN  36  36  99 E7        29.46F WCI  30
EAU CLAIRE     CLOUDY    35  35 100 E6        29.43F FOG     WCI  30
MENOMONIE        N/A    N/A N/A N/A MISG        N/A
NEW RICHMOND   CLOUDY    36  36 100 E6        29.43S WCI  31
OSCEOLA        CLOUDY    37  37 100 E3        29.46S
$$

WIZ003>005-009-010-017-018-211800-
NORTH CENTRAL WISCONSIN

CITY           SKY/WX    TMP DP  RH WIND       PRES   REMARKS
MANITOWISH WTR LGT RAIN  33  33 100 E5        29.49S WCI  29
ARBOR VITAE    MIX PCPN  37  36  96 SE9       29.49F WCI  30
WOODRUFF       MIX PCPN  37  36  96 SE9       29.49F WCI  30
RHINELANDER    CLOUDY    35  35 100 E10       29.48F FOG     WCI  27
EAGLE RIVER    LGT RAIN  33  33 100 SE6       29.50F WCI  28
LAND O LAKES   MIX PCPN  34  34  98 SE7       29.53R WCI  28
PHILLIPS       RAIN      34  34 100 E6        29.46F WCI  29
TOMAHAWK       CLOUDY    35  34  96 E6        29.48F FOG     WCI  30
MEDFORD        FOG       34  34  99 E6        29.44F VSB 1/4 WCI  29
MERRILL        CLOUDY    35  35 100 E7          N/A  FOG     WCI  29
$$

WIZ029-030-035-036-043>047-211800-
CENTRAL WISCONSIN

CITY           SKY/WX    TMP DP  RH WIND       PRES   REMARKS
WAUSAU         FOG       35  35 100 E9        29.46F VSB 1/4 WCI  28
MOSINEE        NOT AVBL
MARSHFIELD     LGT RAIN  34  34 100 E8        29.44S VSB 1/4 WCI  27
STEVENS POINT  FOG       34  34 100 E7        29.49R VSB 1/4 WCI  28
WAUPACA        FOG       38  37  97 CALM      29.50F VSB 1/4
WAUTOMA        FOG       36  36 100 NE6       29.48F VSB 1/4 WCI  31
WISC RAPIDS    LGT RAIN  36  36 100 E8        29.46F VSB 1/4 WCI  30
CAMP DOUGLAS   FOG       36  36 100 E7        29.43F VSB 1/4 WCI  30
$$

WIZ011>013-019>022-031-037>040-048>050-211800-
NORTHEAST WISCONSIN

CITY           SKY/WX    TMP DP  RH WIND       PRES   REMARKS
ANTIGO         FOG       33  33 100 E10       29.49F VSB 1/4 WCI  25
SHAWANO        FOG       36  35  96 NE7       29.53F VSB 1/4 WCI  30
OCONTO         CLOUDY    35  35 100 E6        29.55F VSB 1/2 WCI  30
STURGEON BAY   LGT RAIN  38  38 100 E8        29.54F VSB 1/4 WCI  32
GREEN BAY      FOG       37  37 100 NE8       29.52F VSB<1/4 WCI  31
MANITOWOC      NOT AVBL
APPLETON       FOG       36  36 100 NE8       29.48F VSB 1/8 WCI  29
CLINTONVILLE   FOG       36  34  93 E10       29.49F VSB 1/4 WCI  28
OSHKOSH        FOG       37  36  96 NE5       29.48F VSB<1/4 WCI  33
$$

WIZ032>034-041-042-053>061-211800-
SOUTHWEST WISCONSIN

CITY           SKY/WX    TMP DP  RH WIND       PRES   REMARKS
LA CROSSE      CLOUDY    40  37  89 E6        29.42F FOG
SPARTA         CLOUDY    36  36 100 E5        29.44F FOG     WCI  32
VIROQUA        CLOUDY    37  37 100 SE8       29.42S VSB<1/4 WCI  31
BOSCOBEL       FOG       40  38  93 E3        29.45S VSB 1/2
PRAIRIE DU CHI CLOUDY    39  38  97 CALM      29.44S FOG
PLATTEVILLE    CLOUDY    41  41 100 E7        29.44F VSB<1/4
$$

WIZ056-057-062-063-064-067-068-211800-
SOUTH CENTRAL WISCONSIN

CITY           SKY/WX    TMP DP  RH WIND       PRES   REMARKS
REEDSBURG      FOG       37  37 100 E3        29.44F VSB 1/2
BARABOO/DELLS  FOG       37  37  99 CALM      29.44F VSB<1/4
LONE ROCK      NOT AVBL
MINERAL POINT  LGT RAIN  43  43 100 S3        29.44S VSB<1/4
MADISON        FOG       44  43  96 S8        29.46F VSB 1/2
MIDDLETON      CLOUDY    42  42 100 SE3       29.46F VSB<1/4
WATERTOWN      CLOUDY    45  45 100 SE5       29.47F FOG
MONROE         FOG       43  43 100 S9        29.45F VSB<1/4
JANESVILLE     CLOUDY    48  48 100 S8        29.46F
$$

WIZ051-052-058>065-066-070>072-211800-
SOUTHEAST WISCONSIN

CITY           SKY/WX    TMP DP  RH WIND       PRES   REMARKS
MILWAUKEE      PTSUNNY   50  47  89 S7        29.49F FOG
WAUKESHA       CLOUDY    45  45 100 SE8       29.50F FOG
MILWAUKEE/TIMM CLOUDY    46  45  93 SE5       29.51F FOG
RACINE         CLOUDY    45  44  97 S8        29.52F FOG
KENOSHA        CLOUDY    50  47  89 S9        29.50F FOG
FOND DU LAC    CLOUDY    41  38  89 SE7       29.48F
SHEBOYGAN      FOG       41  40  96 CALM      29.50F VSB<1/4
WEST BEND      FOG       39  39 100 CALM      29.50F VSB<1/4
JUNEAU         FOG       41  41 100 SE5       29.49F VSB 1/4
$$

LSZ147-162-211800-
LAKE SUPERIOR

STATION/POSITION TIME  TEMP    WIND        PRES    WAVE
                       AIR SEA DIR/SP/G            HT/PER
                 (UTC) (F)     (DEG/KT/KT) (MB)    (FT/S)
DEVILS ISLAND    1600   34      90/  6/  7 1000.9S
PORT WING        1640   33      30/  8/  9 1000.0F
SAXON HARBOR     1640   34      60/  3/  4  999.7F
$$

LMZ867-665-643>646-211800-
LAKE MICHIGAN

STATION/POSITION TIME  TEMP    WIND        PRES    WAVE
                       AIR SEA DIR/SP/G            HT/PER
                 (UTC) (F)     (DEG/KT/KT) (MB)    (FT/S)
NORTHPORT PIER   1640   35      CALM  /  3 1001.7F
SISTER BAY       1620   37     140/  9/ 12   N/A
KEWAUNEE LAKESHO 1630   37      50/  3/  5 1000.2F
SHEBOYGAN LAKESH 1600   40     140/ 11/ 11 1000.0R
PORT WASHINGTON  1640   40     190/  2/  3 1000.7F
KENOSHA   LAKESH 1600   39     180/  8/ 12 1000.3
$$

TC  - TEMPERATURE IN CELSIUS
VSB - VISIBILITY IN STATUTE MILES
WCI - WIND CHILL INDEX
HX  - HEAT INDEX





USA.gov is the U.S. government's official web portal to all federal, state and local government web resources and services.